Tracking 19562 objects as of 21-Mar-2019
HD Live streaming from Space Station
objects crossing your sky now

ESSA 2 (OT-2)

Track ESSA 2 (OT-2) now!
10-day predictions
ESSA 2 (OT-2) is classified as:


NORAD ID: 2091
Int'l Code: 1966-016A
Perigee: 1,361.9 km
Apogee: 1,421.4 km
Inclination: 101.2 °
Period: 113.4 minutes
Semi major axis: 7762 km
RCS: 0.8236 m2 (medium)
Launch date: February 28, 1966
Source: United States (US)
Launch site: AIR FORCE EASTERN TEST RANGE (AFETR)
aabbcc
Your satellite tracking list
Your tracking list is empty




NASA's NSSDC Master Catalog

Two Line Element Set (TLE):
1  2091U 66016A   19079.82991356 -.00000052 +00000-0 -44473-4 0  9995
2  2091 101.1642 018.9574 0038326 227.0584 153.6520 12.69377331457979
Source of the keplerian elements: AFSPC